Location: Newark
(48.6461°N, 4.3644°W)
Time: 07:50:07
(UTC+00:00)

Altair - Pass Details

Date: 17 January 2021
Orbit: 1501 x 1682 km, 47.2° (Epoch: 24 February)

Event Time Altitude Azimuth Distance (km) Brightness Sun altitude
Rises 05:51:14 0° 198° (SSW) 4,877 10.0 -21.3°
Reaches altitude 10° 05:54:55 10° 187° (S) 3,910 9.6 -20.7°
Maximum altitude 06:03:00 29° 133° (SE) 2,745 9.4 -19.3°
Drops below altitude 10° 06:11:07 10° 80° (E) 3,945 10.7 -18.0°
Sets 06:14:50 0° 70° (ENE) 4,927 11.2 -17.4°
